Temp
5 4 4 4 4 4 5 5 5 6 6 7 8 8 9 10 10 10 11 12 13 13
5 4 4 4 4 4 5 4 5 6 5 6 6 7 7 7 8 10 11 12 12 12
4 4 4 4 4 4 3 3 4 4 4 4 6 5 6 6 5 6 7 7 8 8
4 3 3 3 3 3 3 3 3 3 3 3 4 5 5 4 5 4 4 5 4 4
4 3 3 3 3 2 3 3 3 2 2 2 3 3 3 3 3 3 4 3 3 3
4 3 3 2 2 2 2 2 2 2 1 1 1 2 2 2 2 2 2 2 2 2
3 3 2 2 2 1 1 1 1 1 1 1 1 1 1 1 1 1 1 1 1 1
3 3 2 2 1 1 1 1 0 0 0 0 0 1 1 1 1 0 0 0 0 0
3 2 2 1 1 1 0 0 0 -0 -0 0 1 1 0 0 0 0 0 -0 0 0
3 2 1 1 1 0 -0 -0 -1 -1 -0 -0 -0 0 -0 -0 0 0 0 -0 -0 -0
3 2 1 1 0 -0 -0 -1 -1 -1 -1 -0 -0 -0 -0 -1 -1 -0 -1 -1 -1 -1
2 2 1 1 0 -0 -1 -1 -1 -1 -1 -1 -0 -0 -1 -1 -1 -1 -1 -1 -1 -1
2 1 1 0 -0 -1 -1 -1 -1 -1 -1 -1 -1 -1 -0 -1 -2 -2 -2 -2 -2 -1
2 1 0 -0 -1 -1 -1 -1 -1 -1 -1 -1 -1 -1 -1 -1 -2 -2 -2 -2 -2 -2
Height
774 771 767 765 763 761 758 754 751 748 745 743 740 738 736 734 732 729 726 724 723 722
774 769 767 766 764 761 758 754 752 749 745 742 738 735 732 731 729 725 721 719 717 716
774 771 770 768 764 762 760 757 754 750 747 743 739 735 731 731 729 725 720 717 716 713
777 774 771 768 766 764 762 759 757 754 749 747 741 735 733 732 730 728 725 721 719 719
777 775 773 770 768 766 763 760 758 757 754 750 745 742 738 735 733 731 729 728 725 722
777 776 774 771 769 768 766 762 758 755 754 753 749 746 744 741 737 735 733 730 730 728
776 775 773 772 771 769 766 764 760 758 756 754 751 750 747 745 743 740 737 735 733 733
773 772 771 771 770 769 766 764 762 760 758 756 754 752 751 749 747 745 744 741 740 738
771 770 770 768 767 766 764 763 761 759 759 758 755 754 753 750 750 749 748 748 745 743
770 770 769 768 766 765 764 763 762 761 759 757 755 755 754 752 751 750 751 751 750 747
768 768 767 766 765 764 763 762 762 762 761 760 759 757 754 753 752 750 750 751 751 750
765 765 765 765 764 763 763 762 762 761 761 761 760 759 757 755 754 754 753 751 748 748
764 765 764 764 763 763 763 762 762 761 761 761 760 759 759 757 757 755 754 753 752 750
761 762 762 762 761 762 762 763 762 762 761 761 761 760 760 759 757 755 754 752 751 750
Wind_Speed
15 15 14 14 14 13 14 13 16 16 14 16 16 16 17 19 22 23 24 27 29 27
16 17 18 17 16 17 18 16 17 17 15 14 13 13 13 15 16 15 15 17 19 18
16 16 15 15 17 17 18 18 17 16 17 16 14 14 14 13 14 10 8 6 3 2
12 12 13 14 15 16 16 17 19 19 18 18 19 17 16 14 14 15 15 12 11 12
11 12 13 14 15 15 15 14 15 17 18 19 19 17 15 14 14 14 15 15 15 16
10 11 12 13 14 14 15 16 15 14 16 18 20 17 15 13 11 11 12 13 14 14
7 9 11 12 13 13 14 15 16 16 16 14 17 20 15 12 10 10 12 13 15 15
4 6 7 9 10 11 12 13 12 14 14 16 16 15 16 14 12 12 11 12 13 15
3 4 5 6 8 8 9 9 9 9 12 15 16 14 14 14 13 11 12 11 11 12
3 3 4 6 7 8 7 7 7 7 9 11 12 11 12 12 13 13 11 11 11 12
3 3 4 6 6 6 6 5 5 5 6 8 10 9 10 9 9 9 10 10 11 13
5 4 4 5 5 4 4 3 2 2 3 5 7 9 8 9 8 9 8 7 5 8
6 4 4 4 4 3 3 3 3 2 0 2 3 6 7 9 8 9 10 10 11 9
7 6 4 3 2 2 3 2 2 1 1 1 2 2 6 7 8 8 10 10 12 12
Wind_Direction
22 17 15 9 3 358 352 350 340 344 343 333 327 323 315 308 301 288 275 268 262 258
30 32 29 23 19 13 7 5 355 352 350 347 349 345 341 333 319 304 282 268 263 263
22 25 24 26 28 24 19 13 9 11 11 11 11 12 11 0 356 351 5 12 354 181
14 19 23 24 22 20 20 19 16 12 14 14 20 27 30 26 21 24 28 34 43 40
1 3 8 13 10 6 8 11 10 5 8 12 16 15 20 29 36 38 38 29 36 39
2 5 8 9 7 2 3 8 10 10 6 6 11 7 11 17 30 42 50 52 42 43
3 8 11 10 10 10 12 13 19 24 23 23 25 15 11 19 31 45 54 57 55 50
357 4 6 7 7 5 8 15 20 25 30 29 27 20 20 28 37 40 44 64 67 63
307 343 354 358 1 1 7 15 26 32 33 36 42 34 31 33 35 38 43 39 44 48
297 321 333 345 350 358 7 11 22 38 50 56 51 35 36 35 36 36 34 32 34 32
254 289 316 333 342 356 11 20 30 39 45 52 49 39 45 43 52 65 60 43 22 14
232 252 289 312 325 345 353 359 15 40 48 45 43 26 36 28 39 37 27 22 28 22
221 244 267 294 307 319 327 333 334 295 274 37 45 42 20 20 25 18 8 1 358 360
208 230 245 266 273 296 320 329 1 109 94 360 0 15 11 1 5 1 358 355 352 350